Regional Weather Roundup
Issued by NWS Columbia, SC

Home | Current Version | Previous Version | Text Only | Print | Product List | Glossary On
Versions: 1 2 3 4 5 6 7 8 9 10 11 12 13 14 15 16 17 18 19 20 21 22 23 24 25 26 27
000
ASUS42 KCAE 180910
RWRCAE
REGIONAL WEATHER ROUNDUP
NATIONAL WEATHER SERVICE COLUMBIA SC
400 AM EST WED JAN 18 2017

NOTE: "FAIR" INDICATES FEW OR NO CLOUDS BELOW 12,000 FEET WITH NO
SIGNIFICANT WEATHER AND/OR OBSTRUCTIONS TO VISIBILITY.

NOT ALL STATIONS ARE QUALITY CONTROLLED BY THE NATIONAL
WEATHER SERVICE. USE DATA WITH CAUTION...ESPECIALLY
DEWPOINT OBSERVATIONS.

SCZ001>056-GAZ040-063>065-077-181000-
...UPSTATE SOUTH CAROLINA...

CITY           SKY/WX    TMP DP  RH WIND       PRES   REMARKS
ANDERSON       CLEAR     62  56  80 SW13      30.03F
LIBERTY        SUNNY     60  56  88 SW9       30.01S
SPARTANBURG    CLEAR     63  54  72 SW9G17    29.99F
CLEMSON        PTCLDY    64  56  75 W8        30.03F
GREENVILLE     CLEAR     63  55  75 SW12      30.01F
GREENWOOD      PTCLDY    61  55  81 SW12      30.06F
GREER          CLEAR     60  55  83 SW12      29.99F
ROCK HILL      MOCLDY    61  55  81 SW10      29.98F
CHESTER        CLOUDY    61  54  77 SW6       30.00F
LAURENS        SUNNY     61  55  82 SW9       30.03F


...CENTRAL SOUTH CAROLINA...

CITY           SKY/WX    TMP DP  RH WIND       PRES   REMARKS
COLUMBIA APT   PTCLDY    65  56  72 SW9       30.04R
COLUMBIA OWENS PTCLDY    64  56  75 W7        30.05S
MCENTIRE ANGB  PTCLDY    63  57  81 SW8       30.05R
ORANGEBURG     PTCLDY    61  57  87 SW10      30.06F
SUMTER SHAW    CLOUDY    60  56  87 SW8       30.03R
NEWBERRY       MOSUNNY   63  57  82 SW13G21   30.07F
AIKEN          FAIR      59  55  88 SW8       30.10S
BARNWELL       FAIR      64  61  88 SW6       30.08F
MANNING        FAIR      61  55  82 SW7       30.06F
CAMDEN         FAIR      61  55  82 S6        30.04S
LANCASTER      CLOUDY    61  59  94 SW13      30.00F
WINNSBORO      MOSUNNY   63  57  82 SW10G17   30.03S


...EASTERN AND COASTAL SOUTH CAROLINA...

CITY           SKY/WX    TMP DP  RH WIND       PRES   REMARKS
MYRTLE BEACH   PTCLDY    64  55  72 SW8       30.07F
N MYRTLE BCH   PTCLDY    59  57  93 SW8       30.04F
CONWAY         FAIR      59  55  88 SW5       30.05F
MARION         FAIR      61  55  82 SW7       30.03F
HARTSVILLE     FAIR      59  55  88 SW8       30.02S
FLORENCE       PTCLDY    62  58  86 SW10      30.02F
DARLINGTON     PTCLDY    60  57  89 SW9       30.02F
CHARLESTON APT PTCLDY    62  57  83 SW7       30.08F
MOUNT PLEASANT FAIR      63  57  82 SW6       30.09F
WALTERBORO     SUNNY     61 N/A N/A SW5       30.10F
BEAUFORT       CLEAR     59  56  89 SW9       30.11F


...EASTERN GEORGIA...

CITY           SKY/WX    TMP DP  RH WIND       PRES   REMARKS
AUGUSTA BUSH F PTCLDY    64  58  80 SW6       30.08R
AUGUSTA DANIEL PTCLDY    64  57  78 SW5       30.09R
THOMSON        CLEAR     63  60  93 W3        30.13F
WASHINGTON     FAIR      63  61  94 W5        30.08F
CLAXTON        FAIR     N/A N/A N/A CALM      30.11F
SYLVANIA       SUNNY    N/A N/A N/A CALM      30.11F
STATESBORO     CLEAR     62  60  91 SW3       30.10F
SAVANNAH       CLEAR     61  56  83 SW8       30.12F


...SOUTHERN NORTH CAROLINA...

CITY           SKY/WX    TMP DP  RH WIND       PRES   REMARKS
CHARLOTTE      PTCLDY    63  54  72 SW8       29.97F
MONROE         CLOUDY    62  54  74 SW16      29.96F
WADESBORO      CLOUDY    64  55  73 SW6       29.97F
RUTHERFORDTON  CLOUDY    60  57  91 SW5       29.98
ASHEVILLE      CLOUDY    64  49  57 NW15      30.02S

$$




USA.gov is the U.S. government's official web portal to all federal, state and local government web resources and services.